This is the latest recevied weather packets stored in our database for station/object WA1TYB-13. If no packets are shown the sender has not sent any weather packets the latest 10 day(s).
| Time | Temp. | Humidity | Pressure | Rain* | Wind** | Luminosity | Snow |
|---|---|---|---|---|---|---|---|
| 1777847155 | 23.33° C | 16% | 1011.5 hPa | 0 mm | - | 598 W/m² | - |
| 1777846852 | 23.33° C | 18% | 1011.7 hPa | 0 mm | - | 589 W/m² | - |
| 1777846550 | 23.33° C | 21% | 1011.5 hPa | 0 mm | - | 216 W/m² | - |
| 1777846248 | 23.33° C | 18% | 1011.6 hPa | 0 mm | - | 576 W/m² | - |
| 1777845943 | 23.33° C | 22% | 1012 hPa | 0 mm | - | 544 W/m² | - |
| 1777845641 | 23.33° C | 20% | 1012 hPa | 0 mm | - | 539 W/m² | - |
| 1777845338 | 23.33° C | 22% | 1012 hPa | 0 mm | - | 562 W/m² | - |
| 1777845035 | 23.33° C | 18% | 1012 hPa | 0 mm | - | 573 W/m² | - |
| 1777844733 | 23.33° C | 21% | 1011.8 hPa | 0 mm | - | 585 W/m² | - |
| 1777844429 | 22.78° C | 20% | 1012.2 hPa | 0 mm | - | 568 W/m² | - |
| 1777844128 | 22.78° C | 21% | 1012.3 hPa | 0 mm | - | 584 W/m² | - |
| 1777843824 | 23.33° C | 22% | 1012.2 hPa | 0 mm | - | 580 W/m² | - |
| 1777843521 | 22.78° C | 22% | 1012.3 hPa | 0 mm | - | 563 W/m² | - |
| 1777843219 | 22.78° C | 21% | 1012.5 hPa | 0 mm | - | 593 W/m² | - |
| 1777842916 | 22.78° C | 21% | 1012.6 hPa | 0 mm | - | 620 W/m² | - |
| 1777842611 | 22.78° C | 21% | 1012.5 hPa | 0 mm | - | 670 W/m² | - |
| 1777842308 | 22.78° C | 22% | 1012.9 hPa | 0 mm | - | 667 W/m² | - |
| 1777842004 | 22.78° C | 20% | 1012.7 hPa | 0 mm | - | 658 W/m² | - |
| 1777841701 | 22.22° C | 22% | 1013.1 hPa | 0 mm | - | 643 W/m² | - |
| 1777841397 | 22.22° C | 20% | 1013.1 hPa | 0 mm | - | 656 W/m² | - |
| 1777841094 | 22.22° C | 21% | 1013.2 hPa | 0 mm | - | 671 W/m² | - |
| 1777840790 | 22.22° C | 23% | 1013.3 hPa | 0 mm | - | 703 W/m² | - |
| 1777840489 | 22.22° C | 23% | 1013.3 hPa | 0 mm | - | 693 W/m² | - |
| 1777840185 | 22.78° C | 23% | 1013.3 hPa | 0 mm | - | 671 W/m² | - |
| 1777839883 | 22.22° C | 22% | 1013.5 hPa | 0 mm | - | 680 W/m² | - |
* Rain latest hour (hover to see other rain measurements)
** Current wind speed in m/s (hover to see current wind gust speed)